x

Chivenor (03707) Weather Station

6:00pm - Sat 31st Jan 2015 All times are GMT.

  • Wind
    28mph, 46mph gusts
  • 空気 Temp 40°f
  • Sea Pressure 997mb
  • Chivenor
  • Chivenor

More Historic Weather Station data

Upgrade to MSW Pro to gain access to the past 30 days of data for over 8000 Wavebouys and Weather Stations around the globe.

Join Pro

Comparision Forecast

View Surf forecast
   
Sat 01/31 6:00pm 28 46 mph 997mb 40f
5:00pm 22 43 mph 996mb 40f
4:00pm 22 46 mph 995mb 42f
3:00pm 17 45 mph 994mb 40f
2:00pm 24 38 mph 992mb 42f
1:00pm 28 40 mph 992mb 41f
12:00pm 19 38 mph 991mb 42f
11:00am 18 33 mph 990mb 41f
10:00am 22 40 mph 988mb 40f
9:00am 29 41 mph 987mb 43f
8:00am 24 38 mph 986mb 42f
7:00am 23 37 mph 986mb 42f
6:00am 25 36 mph 985mb 41f
5:00am 19 34 mph 985mb 40f
4:00am 24 32 mph 984mb 42f
3:00am 24 32 mph 984mb 41f
2:00am 18 30 mph 984mb 41f
1:00am 18 30 mph 984mb 41f
12:00am 21 31 mph 984mb 41f
Fri 01/30 11:00pm 21
mph
984mb 41f
10:00pm 19 37 mph 984mb 40f
9:00pm 17 29 mph 984mb 42f
8:00pm 15
mph
983mb 43f
7:00pm 11
mph
984mb 42f
6:00pm 10
mph
983mb 43f
5:00pm 10
mph
983mb 43f
4:00pm 13
mph
983mb 44f
3:00pm 18 30 mph 983mb 45f
2:00pm 22 31 mph 984mb 45f
1:00pm 23 33 mph 984mb 45f
12:00pm 24 33 mph 984mb 46f
11:00am 26 37 mph 984mb 45f
10:00am 23 33 mph 984mb 44f
9:00am 9
mph
984mb 42f
8:00am 19 31 mph 984mb 43f
7:00am 24 43 mph 984mb 43f
6:00am 30 55 mph 983mb 44f
5:00am 39 59 mph 981mb 44f
4:00am 43 62 mph 979mb 43f
3:00am 34 55 mph 979mb 44f
2:00am 36 52 mph 980mb 44f
1:00am 33 48 mph 982mb 44f
12:00am 31 45 mph 983mb 44f
Thu 01/29 11:00pm 33 44 mph 984mb 43f
10:00pm 29 41 mph 984mb 43f
9:00pm 28 41 mph 984mb 42f
8:00pm 25 43 mph 984mb 41f
7:00pm 25 44 mph 984mb 41f
6:00pm 30 41 mph 983mb 41f
5:00pm 28 48 mph 983mb 41f
4:00pm 36 52 mph 982mb 41f
3:00pm 30 49 mph 982mb 40f
2:00pm 37 49 mph 982mb 43f
1:00pm 33 52 mph 984mb 40f
12:00pm 28 47 mph 985mb 44f
11:00am 28 36 mph 987mb 43f
10:00am 22 32 mph 988mb 45f
9:00am 23 33 mph 989mb 44f
8:00am 22 36 mph 991mb 43f
7:00am 18 36 mph 992mb 42f
6:00am 23 31 mph 994mb 41f
5:00am 26 39 mph 995mb 43f
4:00am 23 45 mph 996mb 42f
3:00am 24 44 mph 998mb 43f
2:00am 23 41 mph 999mb 41f
1:00am 23 46 mph 1000mb 40f
12:00am 25 39 mph 1001mb 43f
Wed 01/28 11:00pm 24 36 mph 1002mb 42f
10:00pm 22 32 mph 1003mb 43f
9:00pm 24 43 mph 1004mb 40f
8:00pm 21 37 mph 1005mb 41f
7:00pm 26 38 mph 1006mb 41f
6:00pm 28 38 mph 1006mb 42f
5:00pm 29 44 mph 1007mb 43f
4:00pm 32 48 mph 1007mb 41f
3:00pm 29 39 mph 1007mb 44f
2:00pm 30 43 mph 1007mb 44f
1:00pm 34 48 mph 1007mb 45f
12:00pm 33 55 mph 1007mb 45f
10:00am 30 48 mph 1006mb 49f
9:00am 26 41 mph 1007mb 50f
8:00am 31 39 mph 1007mb 50f
7:00am 23 33 mph 1009mb 50f
6:00am 25 33 mph 1010mb 50f
5:00am 21
mph
1011mb 50f
4:00am 17
mph
1013mb 49f
3:00am 11
mph
1015mb 47f
2:00am 9
mph
1017mb 45f
1:00am 11
mph
1018mb 45f
12:00am 13
mph
1019mb 46f
Tue 01/27 11:00pm 16
mph
1021mb 47f
10:00pm 11
mph
1022mb 46f
9:00pm 11
mph
1023mb 46f
8:00pm 14
mph
1024mb 45f